This is the latest recevied weather packets stored in our database for station/object PY2XH-13. If no packets are shown the sender has not sent any weather packets the latest 10 day(s).
| Time | Temp. | Humidity | Pressure | Rain* | Wind** | Luminosity | Snow |
|---|---|---|---|---|---|---|---|
| 1777767365 | 24.44° C | 54% | 1034.3 hPa | - | - | - | - |
| 1777765564 | 24.44° C | 53% | 1034.1 hPa | - | - | - | - |
| 1777763765 | 24.44° C | 53% | 1034.2 hPa | - | - | - | - |
| 1777761965 | 24.44° C | 55% | 1034.1 hPa | - | - | - | - |
| 1777760164 | 24.44° C | 55% | 1033.6 hPa | - | - | - | - |
| 1777758364 | 24.44° C | 55% | 1033.5 hPa | - | - | - | - |
| 1777756564 | 24.44° C | 54% | 1033.6 hPa | - | - | - | - |
| 1777754764 | 24.44° C | 57% | 1033.8 hPa | - | - | - | - |
| 1777752965 | 24.44° C | 59% | 1033.9 hPa | - | - | - | - |
| 1777751165 | 24.44° C | 60% | 1033.7 hPa | - | - | - | - |
| 1777749365 | 24.44° C | 60% | 1033.6 hPa | - | - | - | - |
| 1777747564 | 25° C | 62% | 1033.1 hPa | - | - | - | - |
| 1777745764 | 25° C | 63% | 1032.6 hPa | - | - | - | - |
| 1777743964 | 25° C | 63% | 1032.4 hPa | - | - | - | - |
| 1777742165 | 25.56° C | 63% | 1032.2 hPa | - | - | - | - |
| 1777740364 | 25.56° C | 49% | 1032.1 hPa | - | - | - | - |
| 1777738564 | 25.56° C | 48% | 1032.4 hPa | - | - | - | - |
| 1777736764 | 25.56° C | 50% | 1032.9 hPa | - | - | - | - |
| 1777734965 | 25.56° C | 49% | 1033.6 hPa | - | - | - | - |
| 1777733165 | 25° C | 50% | 1034 hPa | - | - | - | - |
| 1777731365 | 25° C | 51% | 1034.1 hPa | - | - | - | - |
| 1777729564 | 24.44° C | 51% | 1034.2 hPa | - | - | - | - |
| 1777727764 | 23.89° C | 54% | 1034.4 hPa | - | - | - | - |
| 1777725964 | 23.89° C | 55% | 1034.3 hPa | - | - | - | - |
| 1777724164 | 23.33° C | 62% | 1034.4 hPa | - | - | - | - |
* Rain since midnight (hover to see other rain measurements)
** Current wind speed in m/s (hover to see current wind gust speed)